Showing default

AMAZONAS 2, 35942

Orbit data source: Space-Track

AMAZONAS 2, 35942 is a Brazilian payload satellite in GEO that was launched on Wed, 30 Sep 2009 UTC via an ARIANE 5ECA launch vehicle from the French Guiana (FRGUI). Payload-class satellites include a variety of spacecraft equipped with specific instruments for various scientific and technological missions. These include communications satellites like Starlink; space stations such as the ISS; scientific satellites like the Hubble; Earth observation satellites from companies like Planet Labs, Umbra, and HawkEye 360; GPS; miniature CubeSats for education and research; and military/defense satellites.

Loading next visibility...
Identifier
35942, 2009-054A
Orbit
GEO
Country
Flag of BRBR / BRAZ
Related business
Manufacturer
Astrium/Toulouse
Mission
Operational Commercial Communications
Bus & Motor
EUROSTAR 3000, R-4D-15-375
Mass
5,465 kg wet, ~3,000 kg dry
Launch date (UTC)
2009-09-30 (17 years ago)
Launch vehicle
ARIANE 5ECA
Launch site
French Guiana (FRGUI)
Object type
Payload
Rocket body
Debris
Shape & HBR
Box + 2 Pan, 19.5 m
Radar Cross Section
51.688 m², Large (>1 m²)

Expand to show TLE details & history
Last TLE update: 7 hours ago

TLE from 7 hours ago
0 AMAZONAS 2
1 35942U 09054A   26220.13821940 -.00000263  00000-0  00000+0 0  9992
2 35942   1.9441  82.3516 0003245  55.9953 156.0723  1.00270903 61709
Epoch: 2026-08-08T03:19Z
TLE epoch observation values (Epoch: 2026-08-08T03:19:02.156Z)
Latitude
-1.04464°
Longitude
-71.98694°
Altitude
35,799.045 km
Speed
3.074 km/s
True Right ascension
19h 37m 42s
True Declination
-1° 02' 37"
Sunlit
Object was in daylight at epoch
Visualization orbit readout
Latitude
Unknown
Longitude
Unknown
Altitude
Unknown
Speed
Unknown
Apparent Right ascension
Unknown
Apparent Declination
Unknown
Sunlit
N/A
Visualization observer readout
Local Sidereal Time
00:33:09
Azimuth
Unknown
Elevation
Unknown
Doppler factor
Unknown
Orbital elements
Apogee altitude
35,801.594 km
Perigee altitude
35,774.228 km
Semi-major axis
42,166.048 km
Eccentricity
0.00032
Inclination
1.9441°
RAAN
82.3516°
Arg. of periapsis
55.9953°
True anomaly
156.08738°
Mean anomaly
156.0723°
Eccentric anomaly
156.07984°
Mean motion
0.25067 °/min
Orbital period
1,436.16 mins
BSTAR
0
Loading maneuver chart data...
Computing Atmospheric mass density...
Loading historical data...
Loading historical data...
Loading historical data...
Loading historical data...
Loading historical data...
Loading historical data...
Loading historical data...
Other satellites on launch #54 in the year 2009 (2009-09-30 UTC)

Documentation

Showing up to 5 results
|